ATHENA-FIDUS

Last updated on Sun Apr 12 2026 00:02:53 GMT+0000 (Coordinated Universal Time)

1 39509U 14006B 26101.45672171 .00000156 00000+0 00000+0 0 9990 2 39509 0.0259 109.7159 0001477 286.0478 6.1356 1.00270163 44414
UTC large
Height (km)
Speed (km/s)
/
Latitude / Longitude
Inclination (degrees)
Orbital Period (minutes)
Azimuth
Elevation
Range (km)
Doppler Factor

Next 0 passes for location: London (51.5072 / 0.1276)

Sorry there are no passes over London.
ATHENA-FIDUS